Year,Month,Day,Hour,Minute,Value (Times are PST for temperature in C)
2011,08,07,00,00,16.60
2011,08,07,00,01,16.60
2011,08,07,00,02,16.50
2011,08,07,00,03,16.50
2011,08,07,00,04,16.40
2011,08,07,00,05,16.40
2011,08,07,00,06,16.30
2011,08,07,00,07,16.30
2011,08,07,00,08,16.30
2011,08,07,00,09,16.20
2011,08,07,00,10,16.20
2011,08,07,00,11,16.20
2011,08,07,00,12,16.10
2011,08,07,00,13,16.10
2011,08,07,00,14,16.10
2011,08,07,00,15,16.00
2011,08,07,00,16,16.00
2011,08,07,00,17,16.00
2011,08,07,00,18,15.90
2011,08,07,00,19,15.90
2011,08,07,00,20,15.90
2011,08,07,00,21,15.80
2011,08,07,00,22,15.80
2011,08,07,00,23,15.80
2011,08,07,00,24,15.70
2011,08,07,00,25,15.70
2011,08,07,00,26,15.60
2011,08,07,00,27,15.60
2011,08,07,00,28,15.60
2011,08,07,00,29,15.50
2011,08,07,00,30,15.50
2011,08,07,00,31,15.40
2011,08,07,00,32,15.40
2011,08,07,00,33,15.40
2011,08,07,00,34,15.30
2011,08,07,00,35,15.30
2011,08,07,00,36,15.20
2011,08,07,00,37,15.20
2011,08,07,00,38,15.20
2011,08,07,00,39,15.20
2011,08,07,00,40,15.10
2011,08,07,00,41,15.10
2011,08,07,00,42,15.00
2011,08,07,00,43,15.00
2011,08,07,00,44,15.00
2011,08,07,00,45,15.00
2011,08,07,00,46,15.00
2011,08,07,00,47,15.00
2011,08,07,00,48,15.00
2011,08,07,00,49,15.00
2011,08,07,00,50,15.00
2011,08,07,00,51,15.00
2011,08,07,00,52,15.00
2011,08,07,00,53,15.00
2011,08,07,00,54,14.90
2011,08,07,00,55,14.90
2011,08,07,00,56,14.80
2011,08,07,00,57,14.80
2011,08,07,00,58,14.80
2011,08,07,00,59,14.80
2011,08,07,01,00,14.70
2011,08,07,01,01,14.70
2011,08,07,01,02,14.70
2011,08,07,01,03,14.70
2011,08,07,01,04,14.70
2011,08,07,01,05,14.70
2011,08,07,01,06,14.70
2011,08,07,01,07,14.70
2011,08,07,01,08,14.70
2011,08,07,01,09,14.70
2011,08,07,01,10,14.60
2011,08,07,01,11,14.60
2011,08,07,01,12,14.60
2011,08,07,01,13,14.60
2011,08,07,01,14,14.60
2011,08,07,01,15,14.60
2011,08,07,01,16,14.50
2011,08,07,01,17,14.50
2011,08,07,01,18,14.50
2011,08,07,01,19,14.40
2011,08,07,01,20,14.40
2011,08,07,01,21,14.40
2011,08,07,01,22,14.40
2011,08,07,01,23,14.40
2011,08,07,01,24,14.40
2011,08,07,01,25,14.30
2011,08,07,01,26,14.30
2011,08,07,01,27,14.30
2011,08,07,01,28,14.30
2011,08,07,01,29,14.30
2011,08,07,01,30,14.30
2011,08,07,01,31,14.30
2011,08,07,01,32,14.20
2011,08,07,01,33,14.20
2011,08,07,01,34,14.20
2011,08,07,01,35,14.20
2011,08,07,01,36,14.10
2011,08,07,01,37,14.10
2011,08,07,01,38,14.10
2011,08,07,01,39,14.10
2011,08,07,01,40,14.10
2011,08,07,01,41,14.10
2011,08,07,01,42,14.00
2011,08,07,01,43,14.00
2011,08,07,01,44,14.00
2011,08,07,01,45,14.00
2011,08,07,01,46,13.90
2011,08,07,01,47,13.90
2011,08,07,01,48,13.90
2011,08,07,01,49,13.90
2011,08,07,01,50,13.90
2011,08,07,01,51,13.90
2011,08,07,01,52,13.80
2011,08,07,01,53,13.80
2011,08,07,01,54,13.80
2011,08,07,01,55,13.80
2011,08,07,01,56,13.80
2011,08,07,01,57,13.70
2011,08,07,01,58,13.70
2011,08,07,01,59,13.70
2011,08,07,02,00,13.70
2011,08,07,02,01,13.70
2011,08,07,02,02,13.70
2011,08,07,02,03,13.60
2011,08,07,02,04,13.60
2011,08,07,02,05,13.60
2011,08,07,02,06,13.60
2011,08,07,02,07,13.60
2011,08,07,02,08,13.60
2011,08,07,02,09,13.60
2011,08,07,02,10,13.60
2011,08,07,02,11,13.60
2011,08,07,02,12,13.50
2011,08,07,02,13,13.50
2011,08,07,02,14,13.50
2011,08,07,02,15,13.40
2011,08,07,02,16,13.40
2011,08,07,02,17,13.40
2011,08,07,02,18,13.30
2011,08,07,02,19,13.30
2011,08,07,02,20,13.30
2011,08,07,02,21,13.30
2011,08,07,02,22,13.30
2011,08,07,02,23,13.30
2011,08,07,02,24,13.20
2011,08,07,02,25,13.20
2011,08,07,02,26,13.20
2011,08,07,02,27,13.20
2011,08,07,02,28,13.20
2011,08,07,02,29,13.20
2011,08,07,02,30,13.20
2011,08,07,02,31,13.20
2011,08,07,02,32,13.20
2011,08,07,02,33,13.20
2011,08,07,02,34,13.20
2011,08,07,02,35,13.20
2011,08,07,02,36,13.20
2011,08,07,02,37,13.10
2011,08,07,02,38,13.10
2011,08,07,02,39,13.10
2011,08,07,02,40,13.10
2011,08,07,02,41,13.10
2011,08,07,02,42,13.10
2011,08,07,02,43,13.10
2011,08,07,02,44,13.10
2011,08,07,02,45,13.00
2011,08,07,02,46,13.00
2011,08,07,02,47,13.00
2011,08,07,02,48,13.00
2011,08,07,02,49,12.90
2011,08,07,02,50,12.90
2011,08,07,02,51,12.90
2011,08,07,02,52,12.90
2011,08,07,02,53,12.90
2011,08,07,02,54,12.90
2011,08,07,02,55,12.90
2011,08,07,02,56,12.90
2011,08,07,02,57,12.90
2011,08,07,02,58,12.90
2011,08,07,02,59,12.90
2011,08,07,03,00,12.90
2011,08,07,03,01,12.90
2011,08,07,03,02,12.80
2011,08,07,03,03,12.80
2011,08,07,03,04,12.80
2011,08,07,03,05,12.80
2011,08,07,03,06,12.80
2011,08,07,03,07,12.80
2011,08,07,03,08,12.80
2011,08,07,03,09,12.70
2011,08,07,03,10,12.70
2011,08,07,03,11,12.70
2011,08,07,03,12,12.70
2011,08,07,03,13,12.70
2011,08,07,03,14,12.70
2011,08,07,03,15,12.70
2011,08,07,03,16,12.70
2011,08,07,03,17,12.70
2011,08,07,03,18,12.70
2011,08,07,03,19,12.70
2011,08,07,03,20,12.70
2011,08,07,03,21,12.70
2011,08,07,03,22,12.70
2011,08,07,03,23,12.70
2011,08,07,03,24,12.60
2011,08,07,03,25,12.60
2011,08,07,03,26,12.60
2011,08,07,03,27,12.60
2011,08,07,03,28,12.50
2011,08,07,03,29,12.50
2011,08,07,03,30,12.40
2011,08,07,03,31,12.40
2011,08,07,03,32,12.40
2011,08,07,03,33,12.40
2011,08,07,03,34,12.40
2011,08,07,03,35,12.40
2011,08,07,03,36,12.40
2011,08,07,03,37,12.40
2011,08,07,03,38,12.40
2011,08,07,03,39,12.40
2011,08,07,03,40,12.40
2011,08,07,03,41,12.40
2011,08,07,03,42,12.40
2011,08,07,03,43,12.40
2011,08,07,03,44,12.40
2011,08,07,03,45,12.40
2011,08,07,03,46,12.40
2011,08,07,03,47,12.40
2011,08,07,03,48,12.40
2011,08,07,03,49,12.30
2011,08,07,03,50,12.30
2011,08,07,03,51,12.30
2011,08,07,03,52,12.30
2011,08,07,03,53,12.30
2011,08,07,03,54,12.30
2011,08,07,03,55,12.30
2011,08,07,03,56,12.40
2011,08,07,03,57,12.40
2011,08,07,03,58,12.30
2011,08,07,03,59,12.40
2011,08,07,04,00,12.30
2011,08,07,04,01,12.30
2011,08,07,04,02,12.30
2011,08,07,04,03,12.30
2011,08,07,04,04,12.30
2011,08,07,04,05,12.30
2011,08,07,04,06,12.30
2011,08,07,04,07,12.30
2011,08,07,04,08,12.30
2011,08,07,04,09,12.30
2011,08,07,04,10,12.30
2011,08,07,04,11,12.20
2011,08,07,04,12,12.20
2011,08,07,04,13,12.20
2011,08,07,04,14,12.20
2011,08,07,04,15,12.20
2011,08,07,04,16,12.20
2011,08,07,04,17,12.10
2011,08,07,04,18,12.10
2011,08,07,04,19,12.10
2011,08,07,04,20,12.10
2011,08,07,04,21,12.10
2011,08,07,04,22,12.10
2011,08,07,04,23,12.10
2011,08,07,04,24,12.10
2011,08,07,04,25,12.10
2011,08,07,04,26,12.10
2011,08,07,04,27,12.10
2011,08,07,04,28,12.10
2011,08,07,04,29,12.10
2011,08,07,04,30,12.10
2011,08,07,04,31,12.10
2011,08,07,04,32,12.00
2011,08,07,04,33,12.00
2011,08,07,04,34,12.00
2011,08,07,04,35,11.90
2011,08,07,04,36,11.90
2011,08,07,04,37,11.90
2011,08,07,04,38,11.90
2011,08,07,04,39,11.90
2011,08,07,04,40,11.90
2011,08,07,04,41,11.90
2011,08,07,04,42,12.00
2011,08,07,04,43,11.90
2011,08,07,04,44,12.00
2011,08,07,04,45,12.00
2011,08,07,04,46,12.00
2011,08,07,04,47,11.90
2011,08,07,04,48,11.90
2011,08,07,04,49,11.90
2011,08,07,04,50,11.90
2011,08,07,04,51,11.90
2011,08,07,04,52,11.90
2011,08,07,04,53,11.90
2011,08,07,04,54,11.90
2011,08,07,04,55,11.90
2011,08,07,04,56,11.80
2011,08,07,04,57,11.80
2011,08,07,04,58,11.80
2011,08,07,04,59,11.80
2011,08,07,05,00,11.80
2011,08,07,05,01,11.80
2011,08,07,05,02,11.80
2011,08,07,05,03,11.80
2011,08,07,05,04,11.70
2011,08,07,05,05,11.70
2011,08,07,05,06,11.70
2011,08,07,05,07,11.70
2011,08,07,05,08,11.70
2011,08,07,05,09,11.70
2011,08,07,05,10,11.60
2011,08,07,05,11,11.60
2011,08,07,05,12,11.60
2011,08,07,05,13,11.60
2011,08,07,05,14,11.60
2011,08,07,05,15,11.60
2011,08,07,05,16,11.60
2011,08,07,05,17,11.60
2011,08,07,05,18,11.60
2011,08,07,05,19,11.60
2011,08,07,05,20,11.50
2011,08,07,05,21,11.50
2011,08,07,05,22,11.50
2011,08,07,05,23,11.50
2011,08,07,05,24,11.50
2011,08,07,05,25,11.50
2011,08,07,05,26,11.50
2011,08,07,05,27,11.50
2011,08,07,05,28,11.50
2011,08,07,05,29,11.50
2011,08,07,05,30,11.50
2011,08,07,05,31,11.50
2011,08,07,05,32,11.50
2011,08,07,05,33,11.50
2011,08,07,05,34,11.50
2011,08,07,05,35,11.50
2011,08,07,05,36,11.50
2011,08,07,05,37,11.40
2011,08,07,05,38,11.40
2011,08,07,05,39,11.40
2011,08,07,05,40,11.40
2011,08,07,05,41,11.40
2011,08,07,05,42,11.40
2011,08,07,05,43,11.40
2011,08,07,05,44,11.40
2011,08,07,05,45,11.40
2011,08,07,05,46,11.40
2011,08,07,05,47,11.30
2011,08,07,05,48,11.30
2011,08,07,05,49,11.30
2011,08,07,05,50,11.40
2011,08,07,05,51,11.40
2011,08,07,05,52,11.40
2011,08,07,05,53,11.30
2011,08,07,05,54,11.30
2011,08,07,05,55,11.30
2011,08,07,05,56,11.30
2011,08,07,05,57,11.30
2011,08,07,05,58,11.30
2011,08,07,05,59,11.30
2011,08,07,06,00,11.30
2011,08,07,06,01,11.30
2011,08,07,06,02,11.30
2011,08,07,06,03,11.30
2011,08,07,06,04,11.30
2011,08,07,06,05,11.30
2011,08,07,06,06,11.30
2011,08,07,06,07,11.20
2011,08,07,06,08,11.20
2011,08,07,06,09,11.20
2011,08,07,06,10,11.20
2011,08,07,06,11,11.20
2011,08,07,06,12,11.20
2011,08,07,06,13,11.20
2011,08,07,06,14,11.20
2011,08,07,06,15,11.20
2011,08,07,06,16,11.20
2011,08,07,06,17,11.20
2011,08,07,06,18,11.20
2011,08,07,06,19,11.20
2011,08,07,06,20,11.20
2011,08,07,06,21,11.20
2011,08,07,06,22,11.20
2011,08,07,06,23,11.20
2011,08,07,06,24,11.20
2011,08,07,06,25,11.20
2011,08,07,06,26,11.20
2011,08,07,06,27,11.20
2011,08,07,06,28,11.20
2011,08,07,06,29,11.20
2011,08,07,06,30,11.20
2011,08,07,06,31,11.20
2011,08,07,06,32,11.20
2011,08,07,06,33,11.20
2011,08,07,06,34,11.20
2011,08,07,06,35,11.20
2011,08,07,06,36,11.20
2011,08,07,06,37,11.20
2011,08,07,06,38,11.20
2011,08,07,06,39,11.20
2011,08,07,06,40,11.20
2011,08,07,06,41,11.20
2011,08,07,06,42,11.20
2011,08,07,06,43,11.20
2011,08,07,06,44,11.30
2011,08,07,06,45,11.30
2011,08,07,06,46,11.30
2011,08,07,06,47,11.30
2011,08,07,06,48,11.30
2011,08,07,06,49,11.30
2011,08,07,06,50,11.30
2011,08,07,06,51,11.40
2011,08,07,06,52,11.40
2011,08,07,06,53,11.40
2011,08,07,06,54,11.40
2011,08,07,06,55,11.40
2011,08,07,06,56,11.50
2011,08,07,06,57,11.50
2011,08,07,06,58,11.50
2011,08,07,06,59,11.50
2011,08,07,07,00,11.60
2011,08,07,07,01,11.60
2011,08,07,07,02,11.60
2011,08,07,07,03,11.60
2011,08,07,07,04,11.60
2011,08,07,07,05,11.70
2011,08,07,07,06,11.70
2011,08,07,07,07,11.70
2011,08,07,07,08,11.70
2011,08,07,07,09,11.70
2011,08,07,07,10,11.70
2011,08,07,07,11,11.70
2011,08,07,07,12,11.80
2011,08,07,07,13,11.80
2011,08,07,07,14,11.80
2011,08,07,07,15,11.90
2011,08,07,07,16,12.00
2011,08,07,07,17,12.10
2011,08,07,07,18,12.20
2011,08,07,07,19,12.20
2011,08,07,07,20,12.30
2011,08,07,07,21,12.40
2011,08,07,07,22,12.50
2011,08,07,07,23,12.60
2011,08,07,07,24,12.70
2011,08,07,07,25,12.80
2011,08,07,07,26,12.90
2011,08,07,07,27,13.00
2011,08,07,07,28,13.00
2011,08,07,07,29,13.10
2011,08,07,07,30,13.20
2011,08,07,07,31,13.30
2011,08,07,07,32,13.30
2011,08,07,07,33,13.40
2011,08,07,07,34,13.40
2011,08,07,07,35,13.50
2011,08,07,07,36,13.60
2011,08,07,07,37,13.60
2011,08,07,07,38,13.70
2011,08,07,07,39,13.80
2011,08,07,07,40,13.80
2011,08,07,07,41,13.90
2011,08,07,07,42,14.00
2011,08,07,07,43,14.10
2011,08,07,07,44,14.30
2011,08,07,07,45,14.40
2011,08,07,07,46,14.60
2011,08,07,07,47,14.70
2011,08,07,07,48,14.90
2011,08,07,07,49,15.00
2011,08,07,07,50,15.00
2011,08,07,07,51,15.20
2011,08,07,07,52,15.30
2011,08,07,07,53,15.40
2011,08,07,07,54,15.60
2011,08,07,07,55,15.70
2011,08,07,07,56,15.80
2011,08,07,07,57,15.90
2011,08,07,07,58,16.00
2011,08,07,07,59,16.10
2011,08,07,08,00,16.20
2011,08,07,08,01,16.30
2011,08,07,08,02,16.40
2011,08,07,08,03,16.50
2011,08,07,08,04,16.50
2011,08,07,08,05,16.60
2011,08,07,08,06,16.70
2011,08,07,08,07,16.70
2011,08,07,08,08,16.80
2011,08,07,08,09,16.90
2011,08,07,08,10,16.90
2011,08,07,08,11,17.00
2011,08,07,08,12,17.10
2011,08,07,08,13,17.10
2011,08,07,08,14,17.10
2011,08,07,08,15,17.10
2011,08,07,08,16,17.10
2011,08,07,08,17,17.10
2011,08,07,08,18,17.10
2011,08,07,08,19,17.20
2011,08,07,08,20,17.20
2011,08,07,08,21,17.20
2011,08,07,08,22,17.30
2011,08,07,08,23,17.30
2011,08,07,08,24,17.40
2011,08,07,08,25,17.50
2011,08,07,08,26,17.60
2011,08,07,08,27,17.70
2011,08,07,08,28,17.80
2011,08,07,08,29,17.90
2011,08,07,08,30,17.90
2011,08,07,08,31,17.90
2011,08,07,08,32,17.90
2011,08,07,08,33,17.90
2011,08,07,08,34,17.90
2011,08,07,08,35,17.90
2011,08,07,08,36,17.90
2011,08,07,08,37,17.90
2011,08,07,08,38,17.90
2011,08,07,08,39,17.90
2011,08,07,08,40,17.90
2011,08,07,08,41,18.00
2011,08,07,08,42,18.00
2011,08,07,08,43,18.10
2011,08,07,08,44,18.10
2011,08,07,08,45,18.20
2011,08,07,08,46,18.30
2011,08,07,08,47,18.30
2011,08,07,08,48,18.30
2011,08,07,08,49,18.40
2011,08,07,08,50,18.40
2011,08,07,08,51,18.40
2011,08,07,08,52,18.40
2011,08,07,08,53,18.40
2011,08,07,08,54,18.50
2011,08,07,08,55,18.50
2011,08,07,08,56,18.60
2011,08,07,08,57,18.60
2011,08,07,08,58,18.70
2011,08,07,08,59,18.70
2011,08,07,09,00,18.80
2011,08,07,09,01,18.80
2011,08,07,09,02,18.80
2011,08,07,09,03,18.80
2011,08,07,09,04,18.80
2011,08,07,09,05,18.80
2011,08,07,09,06,18.70
2011,08,07,09,07,18.70
2011,08,07,09,08,18.70
2011,08,07,09,09,18.70
2011,08,07,09,10,18.70
2011,08,07,09,11,18.70
2011,08,07,09,12,18.70
2011,08,07,09,13,18.70
2011,08,07,09,14,18.80
2011,08,07,09,15,18.80
2011,08,07,09,16,18.80
2011,08,07,09,17,18.80
2011,08,07,09,18,18.80
2011,08,07,09,19,18.80
2011,08,07,09,20,18.80
2011,08,07,09,21,18.80
2011,08,07,09,22,18.80
2011,08,07,09,23,18.90
2011,08,07,09,24,18.90
2011,08,07,09,25,18.90
2011,08,07,09,26,19.00
2011,08,07,09,27,19.00
2011,08,07,09,28,19.10
2011,08,07,09,29,19.10
2011,08,07,09,30,19.20
2011,08,07,09,31,19.20
2011,08,07,09,32,19.20
2011,08,07,09,33,19.20
2011,08,07,09,34,19.20
2011,08,07,09,35,19.20
2011,08,07,09,36,19.30
2011,08,07,09,37,19.40
2011,08,07,09,38,19.50
2011,08,07,09,39,19.50
2011,08,07,09,40,19.50
2011,08,07,09,41,19.50
2011,08,07,09,42,19.60
2011,08,07,09,43,19.50
2011,08,07,09,44,19.50
2011,08,07,09,45,19.40
2011,08,07,09,46,19.50
2011,08,07,09,47,19.50
2011,08,07,09,48,19.60
2011,08,07,09,49,19.60
2011,08,07,09,50,19.60
2011,08,07,09,51,19.60
2011,08,07,09,52,19.60
2011,08,07,09,53,19.60
2011,08,07,09,54,19.70
2011,08,07,09,55,19.70
2011,08,07,09,56,19.70
2011,08,07,09,57,19.80
2011,08,07,09,58,19.80
2011,08,07,09,59,19.80
2011,08,07,10,00,19.80
2011,08,07,10,01,19.90
2011,08,07,10,02,19.90
2011,08,07,10,03,20.00
2011,08,07,10,04,20.00
2011,08,07,10,05,20.00
2011,08,07,10,06,20.00
2011,08,07,10,07,20.00
2011,08,07,10,08,19.90
2011,08,07,10,09,19.90
2011,08,07,10,10,19.90
2011,08,07,10,11,19.80
2011,08,07,10,12,19.80
2011,08,07,10,13,19.80
2011,08,07,10,14,19.80
2011,08,07,10,15,19.70
2011,08,07,10,16,19.70
2011,08,07,10,17,19.70
2011,08,07,10,18,19.70
2011,08,07,10,19,19.70
2011,08,07,10,20,19.60
2011,08,07,10,21,19.60
2011,08,07,10,22,19.60
2011,08,07,10,23,19.70
2011,08,07,10,24,19.70
2011,08,07,10,25,19.80
2011,08,07,10,26,19.80
2011,08,07,10,27,19.80
2011,08,07,10,28,19.80
2011,08,07,10,29,19.80
2011,08,07,10,30,19.80
2011,08,07,10,31,19.80
2011,08,07,10,32,19.80
2011,08,07,10,33,19.80
2011,08,07,10,34,19.80
2011,08,07,10,35,19.80
2011,08,07,10,36,19.90
2011,08,07,10,37,19.90
2011,08,07,10,38,19.80
2011,08,07,10,39,19.90
2011,08,07,10,40,19.90
2011,08,07,10,41,20.00
2011,08,07,10,42,20.00
2011,08,07,10,43,19.90
2011,08,07,10,44,19.80
2011,08,07,10,45,19.80
2011,08,07,10,46,19.70
2011,08,07,10,47,19.80
2011,08,07,10,48,19.80
2011,08,07,10,49,19.80
2011,08,07,10,50,19.70
2011,08,07,10,51,19.70
2011,08,07,10,52,19.70
2011,08,07,10,53,19.80
2011,08,07,10,54,19.80
2011,08,07,10,55,19.80
2011,08,07,10,56,19.90
2011,08,07,10,57,19.90
2011,08,07,10,58,19.90
2011,08,07,10,59,19.90
2011,08,07,11,00,20.00
2011,08,07,11,01,20.00
2011,08,07,11,02,20.00
2011,08,07,11,03,20.10
2011,08,07,11,04,20.20
2011,08,07,11,05,20.20
2011,08,07,11,06,20.20
2011,08,07,11,07,20.20
2011,08,07,11,08,20.30
2011,08,07,11,09,20.30
2011,08,07,11,10,20.40
2011,08,07,11,11,20.40
2011,08,07,11,12,20.40
2011,08,07,11,13,20.50
2011,08,07,11,14,20.60
2011,08,07,11,15,20.70
2011,08,07,11,16,20.70
2011,08,07,11,17,20.60
2011,08,07,11,18,20.70
2011,08,07,11,19,20.70
2011,08,07,11,20,20.70
2011,08,07,11,21,20.70
2011,08,07,11,22,20.70
2011,08,07,11,23,20.70
2011,08,07,11,24,20.80
2011,08,07,11,25,20.70
2011,08,07,11,26,20.70
2011,08,07,11,27,20.70
2011,08,07,11,28,20.70
2011,08,07,11,29,20.80
2011,08,07,11,30,20.80
2011,08,07,11,31,20.80
2011,08,07,11,32,20.90
2011,08,07,11,33,20.90
2011,08,07,11,34,20.90
2011,08,07,11,35,21.00
2011,08,07,11,36,21.10
2011,08,07,11,37,21.10
2011,08,07,11,38,21.10
2011,08,07,11,39,21.10
2011,08,07,11,40,21.00
2011,08,07,11,41,21.10
2011,08,07,11,42,21.10
2011,08,07,11,43,21.10
2011,08,07,11,44,21.20
2011,08,07,11,45,21.20
2011,08,07,11,46,21.10
2011,08,07,11,47,21.10
2011,08,07,11,48,21.00
2011,08,07,11,49,21.10
2011,08,07,11,50,21.00
2011,08,07,11,51,21.00
2011,08,07,11,52,21.00
2011,08,07,11,53,21.10
2011,08,07,11,54,21.00
2011,08,07,11,55,21.00
2011,08,07,11,56,20.90
2011,08,07,11,57,20.80
2011,08,07,11,58,20.90
2011,08,07,11,59,20.90
2011,08,07,12,00,20.90
2011,08,07,12,01,20.90
2011,08,07,12,02,20.90
2011,08,07,12,03,20.80
2011,08,07,12,04,20.80
2011,08,07,12,05,20.90
2011,08,07,12,06,20.80
2011,08,07,12,07,20.80
2011,08,07,12,08,20.90
2011,08,07,12,09,21.00
2011,08,07,12,10,21.10
2011,08,07,12,11,21.20
2011,08,07,12,12,21.20
2011,08,07,12,13,21.30
2011,08,07,12,14,21.20
2011,08,07,12,15,21.10
2011,08,07,12,16,21.10
2011,08,07,12,17,21.10
2011,08,07,12,18,21.20
2011,08,07,12,19,21.20
2011,08,07,12,20,21.20
2011,08,07,12,21,21.20
2011,08,07,12,22,21.20
2011,08,07,12,23,21.30
2011,08,07,12,24,21.40
2011,08,07,12,25,21.40
2011,08,07,12,26,21.30
2011,08,07,12,27,21.30
2011,08,07,12,28,21.30
2011,08,07,12,29,21.20
2011,08,07,12,30,21.20
2011,08,07,12,31,21.20
2011,08,07,12,32,21.20
2011,08,07,12,33,21.30
2011,08,07,12,34,21.30
2011,08,07,12,35,21.20
2011,08,07,12,36,21.30
2011,08,07,12,37,21.30
2011,08,07,12,38,21.30
2011,08,07,12,39,21.30
2011,08,07,12,40,21.40
2011,08,07,12,41,21.40
2011,08,07,12,42,21.50
2011,08,07,12,43,21.60
2011,08,07,12,44,21.70
2011,08,07,12,45,21.80
2011,08,07,12,46,21.90
2011,08,07,12,47,21.90
2011,08,07,12,48,21.90
2011,08,07,12,49,21.90
2011,08,07,12,50,21.80
2011,08,07,12,51,21.80
2011,08,07,12,52,21.70
2011,08,07,12,53,21.60
2011,08,07,12,54,21.70
2011,08,07,12,55,21.70
2011,08,07,12,56,21.70
2011,08,07,12,57,21.70
2011,08,07,12,58,21.70
2011,08,07,12,59,21.70
2011,08,07,13,00,21.60
2011,08,07,13,01,21.60
2011,08,07,13,02,21.50
2011,08,07,13,03,21.50
2011,08,07,13,04,21.50
2011,08,07,13,05,21.40
2011,08,07,13,06,21.50
2011,08,07,13,07,21.50
2011,08,07,13,08,21.60
2011,08,07,13,09,21.60
2011,08,07,13,10,21.70
2011,08,07,13,11,21.70
2011,08,07,13,12,21.80
2011,08,07,13,13,22.00
2011,08,07,13,14,22.00
2011,08,07,13,15,21.90
2011,08,07,13,16,21.70
2011,08,07,13,17,21.60
2011,08,07,13,18,21.50
2011,08,07,13,19,21.40
2011,08,07,13,20,21.50
2011,08,07,13,21,21.50
2011,08,07,13,22,21.60
2011,08,07,13,23,21.70
2011,08,07,13,24,21.80
2011,08,07,13,25,21.80
2011,08,07,13,26,21.80
2011,08,07,13,27,21.80
2011,08,07,13,28,21.90
2011,08,07,13,29,22.00
2011,08,07,13,30,22.10
2011,08,07,13,31,22.10
2011,08,07,13,32,22.10
2011,08,07,13,33,22.00
2011,08,07,13,34,22.00
2011,08,07,13,35,21.90
2011,08,07,13,36,21.90
2011,08,07,13,37,21.90
2011,08,07,13,38,22.00
2011,08,07,13,39,22.10
2011,08,07,13,40,22.00
2011,08,07,13,41,22.00
2011,08,07,13,42,22.00
2011,08,07,13,43,22.10
2011,08,07,13,44,22.10
2011,08,07,13,45,22.10
2011,08,07,13,46,22.10
2011,08,07,13,47,22.00
2011,08,07,13,48,21.90
2011,08,07,13,49,22.00
2011,08,07,13,50,22.00
2011,08,07,13,51,21.90
2011,08,07,13,52,21.80
2011,08,07,13,53,21.70
2011,08,07,13,54,21.90
2011,08,07,13,55,22.00
2011,08,07,13,56,21.90
2011,08,07,13,57,21.90
2011,08,07,13,58,22.00
2011,08,07,13,59,22.10
2011,08,07,14,00,22.10
2011,08,07,14,01,22.10
2011,08,07,14,02,22.10
2011,08,07,14,03,22.00
2011,08,07,14,04,21.90
2011,08,07,14,05,22.00
2011,08,07,14,06,22.20
2011,08,07,14,07,22.30
2011,08,07,14,08,22.30
2011,08,07,14,09,22.30
2011,08,07,14,10,22.40
2011,08,07,14,11,22.40
2011,08,07,14,12,22.40
2011,08,07,14,13,22.40
2011,08,07,14,14,22.40
2011,08,07,14,15,22.50
2011,08,07,14,16,22.40
2011,08,07,14,17,22.30
2011,08,07,14,18,22.20
2011,08,07,14,19,22.20
2011,08,07,14,20,22.20
2011,08,07,14,21,22.30
2011,08,07,14,22,22.40
2011,08,07,14,23,22.40
2011,08,07,14,24,22.40
2011,08,07,14,25,22.30
2011,08,07,14,26,22.20
2011,08,07,14,27,22.00
2011,08,07,14,28,21.90
2011,08,07,14,29,21.90
2011,08,07,14,30,21.90
2011,08,07,14,31,21.90
2011,08,07,14,32,21.90
2011,08,07,14,33,22.00
2011,08,07,14,34,22.00
2011,08,07,14,35,21.90
2011,08,07,14,36,21.90
2011,08,07,14,37,21.80
2011,08,07,14,38,21.80
2011,08,07,14,39,21.70
2011,08,07,14,40,21.70
2011,08,07,14,41,21.60
2011,08,07,14,42,21.60
2011,08,07,14,43,21.50
2011,08,07,14,44,21.40
2011,08,07,14,45,21.40
2011,08,07,14,46,21.50
2011,08,07,14,47,21.50
2011,08,07,14,48,21.40
2011,08,07,14,49,21.30
2011,08,07,14,50,21.30
2011,08,07,14,51,21.20
2011,08,07,14,52,21.20
2011,08,07,14,53,21.20
2011,08,07,14,54,21.30
2011,08,07,14,55,21.30
2011,08,07,14,56,21.20
2011,08,07,14,57,21.20
2011,08,07,14,58,21.30
2011,08,07,14,59,21.30
2011,08,07,15,00,21.30
2011,08,07,15,01,21.40
2011,08,07,15,02,21.30
2011,08,07,15,03,21.40
2011,08,07,15,04,21.40
2011,08,07,15,05,21.30
2011,08,07,15,06,21.40
2011,08,07,15,07,21.30
2011,08,07,15,08,21.30
2011,08,07,15,09,21.40
2011,08,07,15,10,21.40
2011,08,07,15,11,21.40
2011,08,07,15,12,21.50
2011,08,07,15,13,21.50
2011,08,07,15,14,21.50
2011,08,07,15,15,21.50
2011,08,07,15,16,21.60
2011,08,07,15,17,21.70
2011,08,07,15,18,21.70
2011,08,07,15,19,21.80
2011,08,07,15,20,21.80
2011,08,07,15,21,21.80
2011,08,07,15,22,21.90
2011,08,07,15,23,22.00
2011,08,07,15,24,22.20
2011,08,07,15,25,22.20
2011,08,07,15,26,22.30
2011,08,07,15,27,22.30
2011,08,07,15,28,22.30
2011,08,07,15,29,22.30
2011,08,07,15,30,22.20
2011,08,07,15,31,22.10
2011,08,07,15,32,22.00
2011,08,07,15,33,21.90
2011,08,07,15,34,21.90
2011,08,07,15,35,21.90
2011,08,07,15,36,21.90
2011,08,07,15,37,21.90
2011,08,07,15,38,21.90
2011,08,07,15,39,21.90
2011,08,07,15,40,22.00
2011,08,07,15,41,22.10
2011,08,07,15,42,22.10
2011,08,07,15,43,22.30
2011,08,07,15,44,22.40
2011,08,07,15,45,22.50
2011,08,07,15,46,22.50
2011,08,07,15,47,22.50
2011,08,07,15,48,22.50
2011,08,07,15,49,22.50
2011,08,07,15,50,22.50
2011,08,07,15,51,22.50
2011,08,07,15,52,22.60
2011,08,07,15,53,22.70
2011,08,07,15,54,22.80
2011,08,07,15,55,22.70
2011,08,07,15,56,22.60
2011,08,07,15,57,22.60
2011,08,07,15,58,22.60
2011,08,07,15,59,22.60
2011,08,07,16,00,22.60
2011,08,07,16,01,22.70
2011,08,07,16,02,22.70
2011,08,07,16,03,22.70
2011,08,07,16,04,22.70
2011,08,07,16,05,22.70
2011,08,07,16,06,22.70
2011,08,07,16,07,22.50
2011,08,07,16,08,22.50
2011,08,07,16,09,22.50
2011,08,07,16,10,22.60
2011,08,07,16,11,22.70
2011,08,07,16,12,22.80
2011,08,07,16,13,22.90
2011,08,07,16,14,23.00
2011,08,07,16,15,23.10
2011,08,07,16,16,23.10
2011,08,07,16,17,23.00
2011,08,07,16,18,22.90
2011,08,07,16,19,22.80
2011,08,07,16,20,22.80
2011,08,07,16,21,22.90
2011,08,07,16,22,23.00
2011,08,07,16,23,23.10
2011,08,07,16,24,23.10
2011,08,07,16,25,23.10
2011,08,07,16,26,23.00
2011,08,07,16,27,22.90
2011,08,07,16,28,22.80
2011,08,07,16,29,22.80
2011,08,07,16,30,22.80
2011,08,07,16,31,22.70
2011,08,07,16,32,22.60
2011,08,07,16,33,22.60
2011,08,07,16,34,22.50
2011,08,07,16,35,22.50
2011,08,07,16,36,22.50
2011,08,07,16,37,22.50
2011,08,07,16,38,22.60
2011,08,07,16,39,22.70
2011,08,07,16,40,22.70
2011,08,07,16,41,22.80
2011,08,07,16,42,22.80
2011,08,07,16,43,22.70
2011,08,07,16,44,22.60
2011,08,07,16,45,22.60
2011,08,07,16,46,22.50
2011,08,07,16,47,22.40
2011,08,07,16,48,22.40
2011,08,07,16,49,22.40
2011,08,07,16,50,22.40
2011,08,07,16,51,22.40
2011,08,07,16,52,22.40
2011,08,07,16,53,22.50
2011,08,07,16,54,22.60
2011,08,07,16,55,22.60
2011,08,07,16,56,22.50
2011,08,07,16,57,22.50
2011,08,07,16,58,22.40
2011,08,07,16,59,22.30
2011,08,07,17,00,22.30
2011,08,07,17,01,22.20
2011,08,07,17,02,22.20
2011,08,07,17,03,22.20
2011,08,07,17,04,22.30
2011,08,07,17,05,22.30
2011,08,07,17,06,22.30
2011,08,07,17,07,22.20
2011,08,07,17,08,22.20
2011,08,07,17,09,22.10
2011,08,07,17,10,22.10
2011,08,07,17,11,22.10
2011,08,07,17,12,22.00
2011,08,07,17,13,22.00
2011,08,07,17,14,22.10
2011,08,07,17,15,22.20
2011,08,07,17,16,22.30
2011,08,07,17,17,22.30
2011,08,07,17,18,22.30
2011,08,07,17,19,22.30